Lawrence, KS

10:42 PM CDT on May 28, 2017 (GMT -0500)
Lawrence Municipal

Weather History for KLWC - August, 2013

Change the Weather History Date:

Friday, August 30, 2013

  Actual Average Record
Temperature  
Mean Temperature 86 °F 74 °F  
Max Temperature 103 °F 87 °F 103 °F (2013)
Min Temperature 69 °F 62 °F 53 °F (2008)
Degree Days  
Heating Degree Days 0 0  
Month to date heating degree days 0 0  
Since 1 June heating degree days 13 9  
Since 1 July heating degree days 0 1  
Cooling Degree Days 21 10  
Month to date cooling degree days 359 375  
Year to date cooling degree days 1202 1183  
Since 1 June cooling degree days 1075 1064  
Growing Degree Days 36 (Base 50)    
Moisture  
Dew Point 68 °F    
Average Humidity 57    
Maximum Humidity 84    
Minimum Humidity 29    
Precipitation  
Precipitation 0.00 in 0.13 in 2.58 in (2003)
Month to date precipitation 3.25 4.19  
Year to date precipitation 20.28 27.72  
Sea Level Pressure  
Sea Level Pressure 29.88 in    
Wind  
Wind Speed 4 mph (South)    
Max Wind Speed 14 mph    
Max Gust Speed 20 mph    
Visibility 10 miles    
Events      
T = Trace of Precipitation, MM = Missing Value Source: NWS Daily Summary

Daily Weather History Graph

Daily Weather History Graph

Search for Another Location

Airport or City:

Trip Planner

Search our weather history database for the weather conditions in past years. The results will help you decide how hot, cold, wet, or windy it might be!

Date:

Astronomy

Aug. 30, 2013 Rise Set
Actual Time 6:48 AM CDT 7:53 PM CDT
Civil Twilight 6:20 AM CDT 8:21 PM CDT
Nautical Twilight 5:47 AM CDT 8:53 PM CDT
Astronomical Twilight 5:13 AM CDT 9:27 PM CDT
Moon 1:29 AM CDT (8/30) 4:08 PM CDT (8/30)
Length of Visible Light 14h 00m
Length of Day
13h 05m
Waning Crescent, 29% of the Moon is Illuminated
Aug 30
Waning Crescent
Sep 5
New
Sep 12
First Quarter
Sep 19
Full
Sep 26
Last Quarter

Hourly Weather History & Observations

Time (CDT) Temp. Heat Index Dew Point Humidity Pressure Visibility Wind Dir Wind Speed Gust Speed Precip Events Conditions
12:52 AM 81.0 °F 84.1 °F 69.1 °F 67% 29.93 in 10.0 mi Calm Calm - N/A   Clear
1:52 AM 77.0 °F - 69.1 °F 76% 29.93 in 10.0 mi Calm Calm - N/A   Clear
2:52 AM 79.0 °F - 68.0 °F 69% 29.92 in 10.0 mi SSE 3.5 mph - N/A   Clear
3:52 AM 78.1 °F - 68.0 °F 71% 29.92 in 10.0 mi Calm Calm - N/A   Clear
4:52 AM 72.0 °F - 66.9 °F 84% 29.92 in 10.0 mi Calm Calm - N/A   Clear
5:52 AM 71.1 °F - 66.9 °F 87% 29.93 in 10.0 mi Calm Calm - N/A   Clear
6:52 AM 71.1 °F - 66.9 °F 87% 29.94 in 10.0 mi East 3.5 mph - N/A   Clear
7:52 AM 75.9 °F - 69.1 °F 79% 29.95 in 5.0 mi Calm Calm - N/A   Haze
8:52 AM 82.0 °F 85.9 °F 70.0 °F 67% 29.95 in 10.0 mi Variable 3.5 mph - N/A   Partly Cloudy
9:52 AM 87.1 °F 92.0 °F 70.0 °F 57% 29.94 in 10.0 mi SSW 8.1 mph - N/A   Clear
10:52 AM 91.0 °F 97.6 °F 71.1 °F 52% 29.93 in 10.0 mi SSW 8.1 mph - N/A   Clear
11:52 AM 95.0 °F 100.7 °F 69.1 °F 43% 29.91 in 10.0 mi WSW 11.5 mph - N/A   Clear
12:52 PM 99.0 °F 104.2 °F 68.0 °F 36% 29.88 in 10.0 mi South 10.4 mph - N/A   Clear
1:52 PM 100.9 °F 105.3 °F 66.0 °F 32% 29.87 in 10.0 mi SSW 6.9 mph - N/A   Clear
2:52 PM 100.0 °F 104.2 °F 66.0 °F 33% 29.85 in 10.0 mi SSW 6.9 mph - N/A   Clear
3:52 PM 102.0 °F 105.9 °F 64.9 °F 30% 29.84 in 10.0 mi WSW 8.1 mph - N/A   Clear
4:52 PM 100.9 °F 104.6 °F 64.9 °F 31% 29.83 in 10.0 mi SSW 5.8 mph - N/A   Clear
5:52 PM 100.0 °F 104.2 °F 66.0 °F 33% 29.82 in 10.0 mi SW 6.9 mph - N/A   Clear
6:52 PM 96.1 °F 101.6 °F 69.1 °F 41% 29.81 in 10.0 mi South 4.6 mph - N/A   Clear
7:52 PM 88.0 °F 93.8 °F 71.1 °F 57% 29.81 in 10.0 mi Calm Calm - N/A   Clear
8:52 PM 82.9 °F 87.5 °F 71.1 °F 67% 29.81 in 10.0 mi ESE 3.5 mph - N/A   Clear
9:52 PM 81.0 °F 84.9 °F 71.1 °F 72% 29.81 in 10.0 mi ESE 3.5 mph - N/A   Clear
10:52 PM 82.0 °F 85.9 °F 70.0 °F 67% 29.81 in 10.0 mi SE 4.6 mph - N/A   Clear
11:52 PM 80.1 °F 83.6 °F 71.1 °F 74% 29.82 in 10.0 mi Calm Calm - N/A   Clear